Weather in Divasy

Russia / Smolensk Oblast     54°51′32″N   31°58′29″E
temp.,
°C
wind,
m/s
gust,
m/s
humid.,
%
clouds,
%
prec.,
mm/h
press.,
hPa
HPBL,
m
13 april, tue
tue1300:00+9ese3691100 0.2 1022122
03:00+9ese2394100 0.6 102163
06:00+8ese2294100 0.0 102132
09:00+11se3482100 0.0 1021217
12:00+16sse5865100 0.0 1020830
15:00+18s695190 0.1 10191764
18:00+13s41076100 0.5 1019483
21:00+11sse3789100 0.5 1019221
14 april, wed
wed1400:00+10sse3792100 0.1 1018170
03:00+10sse269388 0.2 1017161
06:00+9sse2695100 0.0 1017197
09:00+10s3690100 0.1 1017327
12:00+12sse4578100 0.0 1017517
15:00+15sse4561100 0.3 1016988
18:00+14sse236553 0.0 1015878
21:00+11ene1179100 0.0 101610
15 april, thu
thu1500:00+10ene2392100 0.9 101683
03:00+10se3595100 3.1 1015135
06:00+9e2393100 1.2 101572
09:00+11ese3482100 1.3 1016394
12:00+13se4469100 0.4 1016937
15:00+14e346192 1.1 10151180
18:00+14ene46697 0.3 1015726
21:00+9ne489193 0.4 1015156
16 april, fri
fri1600:00+10e4891100 0.1 1015345
03:00+9e4995100 2.1 1016450
06:00+9ne51091100 3.3 1016582
09:00+9ene71188100 3.5 1017574
12:00+8ene71291100 2.9 1018669
15:00+10ene71085100 3.3 1018901
18:00+11ene6118161 0.1 1019760
21:00+10ene8168497 0.2 1020639
17 april, sat
sat1700:00+8ene81586100 1.3 1022598
03:00+8ene81586100 1.4 1023560
06:00+6ene8158654 0.1 1024546
09:00+7ene815735 0.1 1026617
12:00+11ene912575 0.0 10261034
15:00+13ene911432 0.0 10271398
18:00+12ene711500 0.0 10281371
21:00+8ene513600 0.0 1030385